This is the latest recevied weather packets stored in our database for station/object VK3HAG. If no packets are shown the sender has not sent any weather packets the latest 10 day(s).
| Time | Temp. | Humidity | Pressure | Rain* | Wind** | Luminosity | Snow |
|---|---|---|---|---|---|---|---|
| 1778094905 | 5.56° C | 87% | 1017.9 hPa | 0 mm | - | - | - |
| 1778094004 | 5.56° C | 86% | 1018.3 hPa | 0 mm | - | - | - |
| 1778093104 | 5.56° C | 85% | 1018.1 hPa | 0 mm | - | - | - |
| 1778092205 | 5.56° C | 85% | 1017.7 hPa | 0 mm | - | - | - |
| 1778091305 | 5.56° C | 84% | 1017.3 hPa | 0 mm | - | - | - |
| 1778090405 | 5.56° C | 84% | 1017 hPa | 0 mm | - | - | - |
| 1778089504 | 5.56° C | 84% | 1016.9 hPa | 0 mm | - | - | - |
| 1778088604 | 6.11° C | 84% | 1017.3 hPa | 0 mm | - | - | - |
| 1778087704 | 6.11° C | 84% | 1017.4 hPa | 0 mm | - | - | - |
| 1778086805 | 6.11° C | 84% | 1017.5 hPa | 0 mm | - | - | - |
| 1778085905 | 6.11° C | 83% | 1017.2 hPa | 0 mm | - | - | - |
| 1778085004 | 6.67° C | 82% | 1017.2 hPa | 0 mm | - | - | - |
| 1778084104 | 6.67° C | 82% | 1017.2 hPa | 0 mm | - | - | - |
| 1778083205 | 6.67° C | 82% | 1017.3 hPa | 0 mm | - | - | - |
| 1778082305 | 6.67° C | 82% | 1017.3 hPa | 0 mm | - | - | - |
| 1778081405 | 6.67° C | 82% | 1017.4 hPa | 0 mm | - | - | - |
| 1778080505 | 7.22° C | 82% | 1017.4 hPa | 0 mm | - | - | - |
| 1778079604 | 7.22° C | 82% | 1017.4 hPa | 0 mm | - | - | - |
| 1778078704 | 6.67° C | 81% | 1017.2 hPa | 0 mm | - | - | - |
| 1778077804 | 7.22° C | 80% | 1017.1 hPa | 0 mm | - | - | - |
| 1778076904 | 7.22° C | 79% | 1017.1 hPa | 0 mm | - | - | - |
| 1778076013 | 7.78° C | 80% | 1017 hPa | 0 mm | - | - | - |
| 1778075105 | 7.78° C | 81% | 1017 hPa | 0 mm | - | - | - |
| 1778074205 | 8.33° C | 81% | 1016.9 hPa | 0 mm | - | - | - |
| 1778073304 | 8.33° C | 81% | 1016.9 hPa | 0 mm | - | - | - |
* Rain latest hour (hover to see other rain measurements)
** Current wind speed in m/s (hover to see current wind gust speed)